Location: Melbourne
(37.8170°S, 144.9670°E)
Time: 07:26:21
(UTC+11:00)

Aureole 2 Rocket - Visible Passes

Search period start: 29 November 2014 00:00
Search period end: 09 December 2014 00:00
Orbit: 346 x 732 km, 73.9° (Epoch: 28 November)

Date Brightness Start Highest point End Pass type
(mag) Time Alt. Az. Time Alt. Az. Time Alt. Az.
29 Nov 5.7 01:02:59 13° ESE 01:02:59 13° ESE 01:03:48 10° ESE visible
29 Nov 3.9 02:38:28 46° SW 02:38:28 46° SW 02:42:15 10° S visible
30 Nov 5.7 00:55:15 13° ESE 00:55:15 13° ESE 00:56:08 10° ESE visible
30 Nov 4.1 02:30:44 40° SW 02:30:44 40° SW 02:34:18 10° S visible
01 Dec 5.6 00:47:25 14° ESE 00:47:25 14° ESE 00:48:22 10° SE visible
01 Dec 4.3 02:22:54 36° SW 02:22:54 36° SW 02:26:16 10° S visible
02 Dec 5.5 00:39:29 14° ESE 00:39:29 14° ESE 00:40:30 10° SE visible
02 Dec 4.5 02:14:57 33° SW 02:14:57 33° SW 02:18:09 10° S visible
03 Dec 5.5 00:31:26 15° ESE 00:31:26 15° ESE 00:32:32 10° SE visible
03 Dec 4.6 02:06:53 30° SW 02:06:53 30° SW 02:09:57 10° S visible
04 Dec 5.4 00:23:16 16° ESE 00:23:16 16° ESE 00:24:28 10° SE visible
04 Dec 4.7 01:58:43 27° SW 01:58:43 27° SW 02:01:40 10° S visible
05 Dec 5.3 00:15:00 17° ESE 00:15:00 17° ESE 00:16:18 10° SE visible
05 Dec 4.9 01:50:27 25° SW 01:50:27 25° SW 01:53:18 10° S visible
06 Dec 5.2 00:06:38 18° SE 00:06:38 18° SE 00:08:03 10° SE visible
06 Dec 5.0 01:42:04 23° SW 01:42:04 23° SW 01:44:50 10° S visible
06 Dec 5.0 23:58:09 20° SE 23:58:09 20° SE 23:59:43 10° SE visible
07 Dec 5.1 01:33:35 21° SW 01:33:35 21° SW 01:36:17 10° SSW visible
07 Dec 4.8 23:49:33 22° SE 23:49:33 22° SE 23:51:18 10° SE visible
08 Dec 5.1 01:24:58 19° WSW 01:24:58 19° WSW 01:27:39 10° SSW visible
08 Dec 4.6 23:40:49 24° SE 23:40:49 24° SE 23:42:47 10° SE visible
